| time (UTC) | temp F | wind direction | speed MPH | gust MPH | rain 1hr in | rain 24hr in | rain mn in | humidity % | barometer mb |
| 20260904221438 | 88 | 130 | 5.0 | 7.0 | 0.00 | 0.00 | 0.00 | 66 | 1012.9 |
| 20260904220934 | 89 | 130 | 4.0 | 5.0 | 0.00 | 0.00 | 0.00 | 64 | 1013.0 |
| 20260904220433 | 89 | 155 | 5.0 | 7.0 | 0.00 | 0.00 | 0.00 | 63 | 1013.1 |
| 20260904215929 | 89 | 156 | 6.0 | 7.0 | 0.00 | 0.00 | 0.00 | 61 | 1012.9 |
| 20260904215424 | 89 | 161 | 6.0 | 7.0 | 0.00 | 0.00 | 0.00 | 61 | 1013.0 |
| 20260904214919 | 89 | 172 | 2.0 | 3.0 | 0.00 | 0.00 | 0.00 | 61 | 1013.0 |
| 20260904214415 | 90 | 214 | 3.0 | 3.0 | 0.00 | 0.00 | 0.00 | 60 | 1013.1 |
| 20260904213914 | 90 | 163 | 3.0 | 3.0 | 0.00 | 0.00 | 0.00 | 61 | 1013.2 |
| 20260904213408 | 90 | 162 | 6.0 | 9.0 | 0.00 | 0.00 | 0.00 | 61 | 1013.4 |
| 20260904212904 | 90 | 149 | 2.0 | 3.0 | 0.00 | 0.00 | 0.00 | 60 | 1013.3 |
| 20260904212358 | 90 | 138 | 7.0 | 9.0 | 0.00 | 0.00 | 0.00 | 60 | 1013.3 |
| 20260904211854 | 91 | 160 | 6.0 | 7.0 | 0.00 | 0.00 | 0.00 | 58 | 1013.5 |
| 20260904211349 | 92 | 115 | 7.0 | 10.0 | 0.00 | 0.00 | 0.00 | 57 | 1013.7 |
| 20260904210844 | 91 | 156 | 2.0 | 3.0 | 0.00 | 0.00 | 0.00 | 57 | 1013.6 |
| 20260904210343 | 92 | 210 | 6.0 | 7.0 | 0.00 | 0.00 | 0.00 | 56 | 1013.6 |
| 20260904205840 | 93 | 231 | 7.0 | 9.0 | 0.00 | 0.00 | 0.00 | 54 | 1013.4 |
| 20260904205335 | 93 | 157 | 4.0 | 5.0 | 0.00 | 0.00 | 0.00 | 53 | 1013.4 |
| 20260904204832 | 92 | 150 | 4.0 | 7.0 | 0.00 | 0.00 | 0.00 | 54 | 1013.5 |
| 20260904204327 | 92 | 140 | 2.0 | 3.0 | 0.00 | 0.00 | 0.00 | 55 | 1013.6 |
| 20260904203823 | 91 | 151 | 2.0 | 2.0 | 0.00 | 0.00 | 0.00 | 58 | 1013.7 |
| 20260904203319 | 90 | 117 | 3.0 | 3.0 | 0.00 | 0.00 | 0.00 | 58 | 1013.7 |
| 20260904202815 | 89 | 156 | 2.0 | 3.0 | 0.00 | 0.00 | 0.00 | 60 | 1013.7 |
| 20260904202311 | 89 | 155 | 2.0 | 3.0 | 0.00 | 0.00 | 0.00 | 61 | 1013.7 |
| 20260904201807 | 88 | 115 | 5.0 | 7.0 | 0.00 | 0.00 | 0.00 | 62 | 1014.0 |
| 20260904201301 | 88 | 133 | 6.0 | 7.0 | 0.00 | 0.00 | 0.00 | 64 | 1013.7 |
| 20260904200756 | 87 | 123 | 4.0 | 5.0 | 0.00 | 0.00 | 0.00 | 64 | 1013.8 |
| 20260904200250 | 87 | 151 | 2.0 | 3.0 | 0.00 | 0.00 | 0.00 | 65 | 1013.9 |
| 20260904195749 | 87 | 139 | 5.0 | 7.0 | 0.00 | 0.00 | 0.00 | 65 | 1014.0 |
| 20260904195248 | 87 | 163 | 9.0 | 10.0 | 0.00 | 0.00 | 0.00 | 67 | 1014.2 |
| 20260904194743 | 87 | 154 | 10.0 | 12.0 | 0.00 | 0.00 | 0.00 | 69 | 1014.3 |
| 20260904194242 | 86 | 112 | 6.0 | 9.0 | 0.00 | 0.00 | 0.00 | 70 | 1014.3 |
| 20260904193738 | 86 | 140 | 8.0 | 14.0 | 0.00 | 0.00 | 0.00 | 70 | 1014.3 |
| 20260904193233 | 86 | 114 | 11.0 | 12.0 | 0.00 | 0.00 | 0.00 | 70 | 1014.4 |
| 20260904192729 | 87 | 138 | 8.0 | 9.0 | 0.00 | 0.00 | 0.00 | 70 | 1014.4 |
| 20260904192224 | 88 | 117 | 14.0 | 17.0 | 0.00 | 0.00 | 0.00 | 68 | 1014.6 |
| 20260904191721 | 89 | 147 | 7.0 | 9.0 | 0.00 | 0.00 | 0.00 | 68 | 1014.4 |
| 20260904191216 | 90 | 134 | 7.0 | 10.0 | 0.00 | 0.00 | 0.00 | 66 | 1014.7 |
| 20260904190713 | 90 | 125 | 6.0 | 7.0 | 0.00 | 0.00 | 0.00 | 65 | 1014.5 |
| 20260904190209 | 90 | 151 | 3.0 | 5.0 | 0.00 | 0.00 | 0.00 | 63 | 1014.5 |
| 20260904185705 | 89 | 156 | 3.0 | 5.0 | 0.00 | 0.00 | 0.00 | 65 | 1014.7 |
| 20260904185159 | 89 | 126 | 5.0 | 7.0 | 0.00 | 0.00 | 0.00 | 65 | 1014.8 |
| 20260904184658 | 89 | 127 | 4.0 | 5.0 | 0.00 | 0.00 | 0.00 | 65 | 1015.0 |
| 20260904184154 | 90 | 153 | 5.0 | 7.0 | 0.00 | 0.00 | 0.00 | 63 | 1014.9 |
| 20260904183650 | 90 | 137 | 2.0 | 3.0 | 0.00 | 0.00 | 0.00 | 64 | 1015.1 |
| 20260904183149 | 91 | 138 | 3.0 | 3.0 | 0.00 | 0.00 | 0.00 | 62 | 1015.0 |
| 20260904182644 | 93 | 161 | 6.0 | 10.0 | 0.00 | 0.00 | 0.00 | 60 | 1015.0 |
| 20260904182139 | 92 | 173 | 3.0 | 3.0 | 0.00 | 0.00 | 0.00 | 60 | 1015.2 |
| 20260904181635 | 92 | 195 | 7.0 | 9.0 | 0.00 | 0.00 | 0.00 | 60 | 1015.1 |
| 20260904181130 | 92 | 123 | 3.0 | 5.0 | 0.00 | 0.00 | 0.00 | 61 | 1015.4 |
| 20260904180625 | 91 | 150 | 2.0 | 2.0 | 0.00 | 0.00 | 0.00 | 61 | 1015.1 |
| 20260904180120 | 91 | 126 | 6.0 | 9.0 | 0.00 | 0.00 | 0.00 | 62 | 1015.1 |
| 20260904175613 | 91 | 123 | 8.0 | 10.0 | 0.00 | 0.00 | 0.00 | 63 | 1015.1 |
| 20260904175112 | 91 | 160 | 5.0 | 5.0 | 0.00 | 0.00 | 0.00 | 63 | 1015.6 |
| 20260904174606 | 90 | 159 | 6.0 | 9.0 | 0.00 | 0.00 | 0.00 | 65 | 1015.3 |
| 20260904174103 | 91 | 208 | 4.0 | 5.0 | 0.00 | 0.00 | 0.00 | 64 | 1015.5 |
| 20260904173603 | 90 | 182 | 4.0 | 5.0 | 0.00 | 0.00 | 0.00 | 64 | 1015.5 |
| 20260904173058 | 91 | 148 | 2.0 | 3.0 | 0.00 | 0.00 | 0.00 | 66 | 1015.5 |
| 20260904172554 | 91 | 179 | 4.0 | 5.0 | 0.00 | 0.00 | 0.00 | 65 | 1015.8 |
| 20260904172053 | 91 | 193 | 4.0 | 5.0 | 0.00 | 0.00 | 0.00 | 67 | 1015.6 |
| 20260904171549 | 89 | 153 | 0.0 | 2.0 | 0.00 | 0.00 | 0.00 | 71 | 1015.7 |
| 20260904171044 | 89 | 230 | 4.0 | 7.0 | 0.00 | 0.00 | 0.00 | 69 | 1015.8 |
| 20260904170539 | 88 | 170 | 4.0 | 5.0 | 0.00 | 0.00 | 0.00 | 72 | 1015.8 |
| 20260904170036 | 88 | 170 | 7.0 | 10.0 | 0.00 | 0.00 | 0.00 | 72 | 1015.9 |
| 20260904165534 | 88 | 176 | 6.0 | 7.0 | 0.00 | 0.00 | 0.00 | 72 | 1015.9 |
| 20260904165034 | 88 | 160 | 6.0 | 7.0 | 0.00 | 0.00 | 0.00 | 73 | 1015.8 |
| 20260904164529 | 87 | 143 | 4.0 | 5.0 | 0.00 | 0.00 | 0.00 | 74 | 1015.7 |
| 20260904164025 | 87 | 132 | 5.0 | 5.0 | 0.00 | 0.00 | 0.00 | 74 | 1015.8 |
| 20260904163525 | 88 | 165 | 2.0 | 3.0 | 0.00 | 0.00 | 0.00 | 73 | 1015.7 |
| 20260904163020 | 88 | 142 | 4.0 | 7.0 | 0.00 | 0.00 | 0.00 | 74 | 1015.6 |
| 20260904162514 | 88 | 129 | 4.0 | 5.0 | 0.00 | 0.00 | 0.00 | 73 | 1015.5 |
| 20260904162010 | 88 | 145 | 4.0 | 5.0 | 0.00 | 0.00 | 0.00 | 72 | 1015.7 |
| 20260904161459 | 88 | 153 | 7.0 | 12.0 | 0.00 | 0.00 | 0.00 | 72 | 1015.6 |
| 20260904160954 | 88 | 178 | 4.0 | 5.0 | 0.00 | 0.00 | 0.00 | 72 | 1015.8 |
| 20260904160449 | 88 | 169 | 1.0 | 2.0 | 0.00 | 0.00 | 0.00 | 69 | 1015.8 |
| 20260904155944 | 89 | 212 | 5.0 | 7.0 | 0.00 | 0.00 | 0.00 | 69 | 1015.9 |
| 20260904155439 | 88 | 171 | 0.0 | 2.0 | 0.00 | 0.00 | 0.00 | 71 | 1015.8 |
| 20260904154938 | 88 | 161 | 3.0 | 5.0 | 0.00 | 0.00 | 0.00 | 73 | 1015.6 |
| 20260904154432 | 87 | 185 | 3.0 | 5.0 | 0.00 | 0.00 | 0.00 | 73 | 1015.5 |
| 20260904153928 | 87 | 168 | 1.0 | 2.0 | 0.00 | 0.00 | 0.00 | 74 | 1015.4 |
| 20260904153427 | 87 | 143 | 4.0 | 5.0 | 0.00 | 0.00 | 0.00 | 74 | 1015.6 |
| 20260904152925 | 86 | 170 | 2.0 | 3.0 | 0.00 | 0.00 | 0.00 | 74 | 1015.6 |
| 20260904152420 | 86 | 189 | 4.0 | 5.0 | 0.00 | 0.00 | 0.00 | 74 | 1015.5 |
| 20260904151919 | 86 | 183 | 4.0 | 7.0 | 0.00 | 0.00 | 0.00 | 75 | 1015.5 |
| 20260904151414 | 86 | 148 | 3.0 | 5.0 | 0.00 | 0.00 | 0.00 | 76 | 1015.5 |
| 20260904150909 | 86 | 130 | 4.0 | 5.0 | 0.00 | 0.00 | 0.00 | 76 | 1015.4 |
| 20260904150404 | 86 | 165 | 2.0 | 3.0 | 0.00 | 0.00 | 0.00 | 78 | 1015.4 |
| 20260904145901 | 86 | 185 | 6.0 | 7.0 | 0.00 | 0.00 | 0.00 | 77 | 1015.4 |
| 20260904145358 | 86 | 131 | 4.0 | 5.0 | 0.00 | 0.00 | 0.00 | 77 | 1015.4 |
| 20260904144854 | 86 | 160 | 3.0 | 3.0 | 0.00 | 0.00 | 0.00 | 77 | 1015.4 |
| 20260904144349 | 86 | 213 | 6.0 | 7.0 | 0.00 | 0.00 | 0.00 | 77 | 1015.6 |
| 20260904143844 | 86 | 164 | 2.0 | 3.0 | 0.00 | 0.00 | 0.00 | 78 | 1015.2 |
| 20260904143341 | 85 | 171 | 4.0 | 7.0 | 0.00 | 0.00 | 0.00 | 79 | 1015.1 |
| 20260904142837 | 85 | 102 | 3.0 | 3.0 | 0.00 | 0.00 | 0.00 | 79 | 1015.4 |
| 20260904142333 | 86 | 161 | 3.0 | 5.0 | 0.00 | 0.00 | 0.00 | 78 | 1015.2 |
| 20260904141827 | 87 | 167 | 4.0 | 5.0 | 0.00 | 0.00 | 0.00 | 75 | 1015.4 |
| 20260904141322 | 87 | 186 | 4.0 | 5.0 | 0.00 | 0.00 | 0.00 | 76 | 1015.3 |
| 20260904140819 | 86 | 153 | 5.0 | 9.0 | 0.00 | 0.00 | 0.00 | 77 | 1015.3 |
| 20260904140314 | 86 | 137 | 4.0 | 5.0 | 0.00 | 0.00 | 0.00 | 78 | 1015.1 |
| 20260904135813 | 86 | 151 | 2.0 | 3.0 | 0.00 | 0.00 | 0.00 | 79 | 1015.1 |
| 20260904135308 | 84 | 146 | 4.0 | 5.0 | 0.00 | 0.00 | 0.00 | 82 | 1014.9 |
| 20260904134804 | 83 | 176 | 2.0 | 3.0 | 0.00 | 0.00 | 0.00 | 85 | 1015.1 |
| 20260904134303 | 82 | 149 | 0.0 | 0.0 | 0.00 | 0.00 | 0.00 | 86 | 1015.1 |
| 20260904133758 | 82 | 150 | 0.0 | 0.0 | 0.00 | 0.00 | 0.00 | 87 | 1014.9 |
| 20260904133254 | 81 | 159 | 2.0 | 3.0 | 0.00 | 0.00 | 0.00 | 87 | 1015.0 |
| 20260904132753 | 81 | 154 | 0.0 | 0.0 | 0.00 | 0.00 | 0.00 | 89 | 1015.0 |
| 20260904132249 | 81 | 176 | 0.0 | 0.0 | 0.00 | 0.00 | 0.00 | 89 | 1014.8 |
| 20260904131748 | 80 | 160 | 0.0 | 0.0 | 0.00 | 0.00 | 0.00 | 90 | 1014.8 |
| 20260904131244 | 80 | 163 | 0.0 | 0.0 | 0.00 | 0.00 | 0.00 | 91 | 1014.9 |
| 20260904130744 | 79 | 160 | 0.0 | 0.0 | 0.00 | 0.00 | 0.00 | 92 | 1014.8 |
| 20260904130243 | 79 | 160 | 0.0 | 0.0 | 0.00 | 0.00 | 0.00 | 92 | 1014.6 |
| 20260904125739 | 79 | 160 | 0.0 | 0.0 | 0.00 | 0.00 | 0.00 | 93 | 1014.6 |
| 20260904125235 | 79 | 163 | 0.0 | 0.0 | 0.00 | 0.00 | 0.00 | 93 | 1014.7 |
| 20260904124735 | 78 | 163 | 0.0 | 0.0 | 0.00 | 0.00 | 0.00 | 93 | 1014.5 |
| 20260904124231 | 78 | 163 | 0.0 | 0.0 | 0.00 | 0.00 | 0.00 | 93 | 1014.6 |
| 20260904123726 | 78 | 163 | 0.0 | 0.0 | 0.00 | 0.00 | 0.00 | 93 | 1014.5 |
| 20260904123221 | 78 | 163 | 0.0 | 0.0 | 0.00 | 0.00 | 0.00 | 93 | 1014.4 |
| 20260904122722 | 78 | 163 | 0.0 | 0.0 | 0.00 | 0.00 | 0.00 | 93 | 1014.4 |
| 20260904122216 | 78 | 163 | 0.0 | 0.0 | 0.00 | 0.00 | 0.00 | 93 | 1014.5 |
| 20260904121712 | 78 | 163 | 0.0 | 0.0 | 0.00 | 0.00 | 0.00 | 93 | 1014.3 |
| 20260904121207 | 79 | 149 | 0.0 | 0.0 | 0.00 | 0.00 | 0.00 | 93 | 1014.3 |
| 20260904120703 | 79 | 148 | 0.0 | 0.0 | 0.00 | 0.00 | 0.00 | 93 | 1014.2 |
| 20260904120154 | 79 | 149 | 0.0 | 0.0 | 0.00 | 0.00 | 0.00 | 92 | 1014.2 |
| 20260904115649 | 79 | 167 | 0.0 | 0.0 | 0.00 | 0.00 | 0.00 | 92 | 1014.0 |
| 20260904115144 | 79 | 159 | 0.0 | 0.0 | 0.00 | 0.00 | 0.00 | 92 | 1014.2 |
| 20260904114643 | 79 | 166 | 0.0 | 0.0 | 0.00 | 0.00 | 0.00 | 92 | 1014.2 |
| 20260904114137 | 79 | 160 | 0.0 | 0.0 | 0.00 | 0.00 | 0.00 | 92 | 1014.1 |
| 20260904113632 | 79 | 164 | 0.0 | 0.0 | 0.00 | 0.00 | 0.00 | 92 | 1014.1 |
| 20260904113131 | 79 | 159 | 0.0 | 0.0 | 0.00 | 0.00 | 0.00 | 91 | 1014.1 |
| 20260904112627 | 79 | 160 | 0.0 | 0.0 | 0.00 | 0.00 | 0.00 | 91 | 1014.0 |
| 20260904112123 | 79 | 157 | 0.0 | 0.0 | 0.00 | 0.00 | 0.00 | 91 | 1013.9 |
| 20260904111618 | 79 | 148 | 0.0 | 0.0 | 0.00 | 0.00 | 0.00 | 91 | 1014.1 |
| 20260904111114 | 79 | 151 | 0.0 | 0.0 | 0.00 | 0.00 | 0.00 | 91 | 1013.9 |
| 20260904110608 | 79 | 155 | 2.0 | 2.0 | 0.00 | 0.00 | 0.00 | 91 | 1013.8 |
| 20260904105602 | 79 | 170 | 2.0 | 3.0 | 0.00 | 0.00 | 0.00 | 90 | 1013.7 |
| 20260904105058 | 79 | 163 | 2.0 | 3.0 | 0.00 | 0.00 | 0.00 | 90 | 1013.6 |
| 20260904104553 | 79 | 173 | 1.0 | 2.0 | 0.00 | 0.00 | 0.00 | 90 | 1013.5 |
| 20260904104049 | 79 | 165 | 3.0 | 5.0 | 0.00 | 0.00 | 0.00 | 90 | 1013.7 |
| 20260904103544 | 79 | 141 | 4.0 | 5.0 | 0.00 | 0.00 | 0.00 | 90 | 1013.7 |
| 20260904103040 | 79 | 168 | 3.0 | 3.0 | 0.00 | 0.00 | 0.00 | 90 | 1013.6 |
| 20260904102536 | 79 | 168 | 2.0 | 2.0 | 0.00 | 0.00 | 0.00 | 90 | 1013.6 |
| 20260904102031 | 80 | 191 | 2.0 | 3.0 | 0.00 | 0.00 | 0.00 | 90 | 1013.9 |
| 20260904101528 | 80 | 168 | 4.0 | 5.0 | 0.00 | 0.00 | 0.00 | 89 | 1013.9 |
| 20260904101023 | 80 | 147 | 2.0 | 3.0 | 0.00 | 0.00 | 0.00 | 89 | 1013.7 |
| 20260904100519 | 80 | 164 | 0.0 | 0.0 | 0.00 | 0.00 | 0.00 | 89 | 1013.6 |
| 20260904100014 | 80 | 162 | 0.0 | 0.0 | 0.00 | 0.00 | 0.00 | 89 | 1013.7 |
| 20260904095508 | 80 | 159 | 0.0 | 2.0 | 0.00 | 0.00 | 0.00 | 89 | 1013.7 |
| 20260904095003 | 80 | 158 | 0.0 | 0.0 | 0.00 | 0.00 | 0.00 | 89 | 1013.7 |
| 20260904094458 | 80 | 149 | 3.0 | 3.0 | 0.00 | 0.00 | 0.00 | 89 | 1013.7 |
| 20260904093954 | 80 | 153 | 1.0 | 2.0 | 0.00 | 0.00 | 0.00 | 88 | 1013.6 |
| 20260904093450 | 80 | 153 | 0.0 | 0.0 | 0.00 | 0.00 | 0.00 | 88 | 1013.7 |
| 20260904092945 | 80 | 148 | 0.0 | 0.0 | 0.00 | 0.00 | 0.00 | 88 | 1013.5 |
| 20260904092441 | 80 | 159 | 2.0 | 2.0 | 0.00 | 0.00 | 0.00 | 88 | 1013.5 |
| 20260904091936 | 80 | 157 | 0.0 | 0.0 | 0.00 | 0.00 | 0.00 | 88 | 1013.6 |
| 20260904091433 | 80 | 141 | 0.0 | 0.0 | 0.00 | 0.00 | 0.00 | 88 | 1013.5 |
| 20260904090932 | 80 | 165 | 0.0 | 0.0 | 0.00 | 0.00 | 0.00 | 88 | 1013.6 |
| 20260904090428 | 80 | 160 | 1.0 | 2.0 | 0.00 | 0.00 | 0.00 | 88 | 1013.5 |
| 20260904085923 | 80 | 159 | 0.0 | 0.0 | 0.00 | 0.00 | 0.00 | 88 | 1013.5 |
| 20260904085418 | 80 | 183 | 4.0 | 5.0 | 0.00 | 0.00 | 0.00 | 88 | 1013.5 |
| 20260904084913 | 80 | 162 | 0.0 | 2.0 | 0.00 | 0.00 | 0.00 | 88 | 1013.3 |
| 20260904084409 | 80 | 165 | 1.0 | 2.0 | 0.00 | 0.00 | 0.00 | 87 | 1013.5 |
| 20260904083904 | 80 | 140 | 2.0 | 3.0 | 0.00 | 0.00 | 0.00 | 87 | 1013.7 |
| 20260904083401 | 80 | 139 | 4.0 | 7.0 | 0.00 | 0.00 | 0.00 | 87 | 1013.7 |
| 20260904082851 | 80 | 159 | 2.0 | 3.0 | 0.00 | 0.00 | 0.00 | 87 | 1013.6 |
| 20260904082345 | 80 | 171 | 2.0 | 3.0 | 0.00 | 0.00 | 0.00 | 87 | 1013.6 |
| 20260904081841 | 80 | 173 | 2.0 | 3.0 | 0.00 | 0.00 | 0.00 | 87 | 1013.8 |
| 20260904081336 | 80 | 218 | 2.0 | 5.0 | 0.00 | 0.00 | 0.00 | 86 | 1013.7 |
| 20260904080832 | 81 | 155 | 2.0 | 3.0 | 0.00 | 0.00 | 0.00 | 86 | 1013.7 |
| 20260904080327 | 81 | 142 | 3.0 | 5.0 | 0.00 | 0.00 | 0.00 | 86 | 1013.7 |
| 20260904075823 | 81 | 155 | 2.0 | 2.0 | 0.00 | 0.00 | 0.00 | 86 | 1013.7 |
| 20260904075318 | 81 | 132 | 3.0 | 3.0 | 0.00 | 0.00 | 0.00 | 86 | 1013.8 |
| 20260904074816 | 81 | 168 | 1.0 | 2.0 | 0.00 | 0.00 | 0.00 | 86 | 1014.1 |
| 20260904074312 | 81 | 157 | 4.0 | 5.0 | 0.00 | 0.00 | 0.00 | 86 | 1014.0 |
| 20260904073808 | 81 | 144 | 3.0 | 5.0 | 0.00 | 0.00 | 0.00 | 86 | 1013.9 |
| 20260904073303 | 81 | 127 | 2.0 | 2.0 | 0.00 | 0.00 | 0.00 | 86 | 1013.8 |
| 20260904072759 | 81 | 133 | 3.0 | 3.0 | 0.00 | 0.00 | 0.00 | 85 | 1013.9 |
| 20260904072258 | 81 | 132 | 2.0 | 3.0 | 0.00 | 0.00 | 0.00 | 85 | 1013.8 |
| 20260904071754 | 81 | 148 | 2.0 | 3.0 | 0.00 | 0.00 | 0.00 | 85 | 1013.8 |
| 20260904071249 | 81 | 174 | 4.0 | 5.0 | 0.00 | 0.00 | 0.00 | 85 | 1013.8 |
| 20260904070749 | 81 | 169 | 4.0 | 5.0 | 0.00 | 0.00 | 0.00 | 85 | 1014.0 |
| 20260904070249 | 81 | 175 | 2.0 | 3.0 | 0.00 | 0.00 | 0.00 | 85 | 1013.9 |
| 20260904065749 | 81 | 158 | 2.0 | 3.0 | 0.00 | 0.00 | 0.00 | 85 | 1013.9 |
| 20260904065245 | 81 | 165 | 4.0 | 5.0 | 0.00 | 0.00 | 0.00 | 85 | 1014.0 |
| 20260904064745 | 81 | 167 | 2.0 | 3.0 | 0.00 | 0.00 | 0.00 | 85 | 1014.0 |
| 20260904064240 | 81 | 179 | 4.0 | 5.0 | 0.00 | 0.00 | 0.00 | 85 | 1013.9 |
| 20260904063736 | 81 | 164 | 2.0 | 3.0 | 0.00 | 0.00 | 0.00 | 85 | 1014.1 |
| 20260904063232 | 81 | 149 | 0.0 | 2.0 | 0.00 | 0.00 | 0.00 | 85 | 1013.8 |
| 20260904062728 | 81 | 157 | 1.0 | 2.0 | 0.00 | 0.00 | 0.00 | 84 | 1013.9 |
| 20260904062224 | 81 | 191 | 4.0 | 5.0 | 0.00 | 0.00 | 0.00 | 84 | 1013.9 |
| 20260904061719 | 81 | 176 | 5.0 | 7.0 | 0.00 | 0.00 | 0.00 | 84 | 1013.9 |
| 20260904061215 | 81 | 188 | 3.0 | 5.0 | 0.00 | 0.00 | 0.00 | 84 | 1013.8 |
| 20260904060712 | 81 | 186 | 4.0 | 5.0 | 0.00 | 0.00 | 0.00 | 84 | 1014.0 |
| 20260904060207 | 81 | 146 | 2.0 | 3.0 | 0.00 | 0.00 | 0.00 | 84 | 1013.9 |
| 20260904055702 | 81 | 160 | 3.0 | 3.0 | 0.00 | 0.00 | 0.00 | 84 | 1013.9 |
| 20260904055157 | 81 | 174 | 4.0 | 5.0 | 0.00 | 0.00 | 0.00 | 84 | 1014.0 |
| 20260904054653 | 81 | 178 | 0.0 | 2.0 | 0.00 | 0.00 | 0.00 | 83 | 1013.8 |
| 20260904054149 | 81 | 167 | 2.0 | 2.0 | 0.00 | 0.00 | 0.00 | 83 | 1013.7 |
| 20260904053649 | 81 | 160 | 4.0 | 5.0 | 0.00 | 0.00 | 0.00 | 83 | 1014.0 |
| 20260904053143 | 81 | 167 | 5.0 | 7.0 | 0.00 | 0.00 | 0.00 | 83 | 1014.0 |
| 20260904052640 | 82 | 162 | 1.0 | 2.0 | 0.00 | 0.00 | 0.00 | 82 | 1013.7 |
| 20260904052136 | 82 | 166 | 3.0 | 3.0 | 0.00 | 0.00 | 0.00 | 82 | 1013.7 |
| 20260904051633 | 82 | 151 | 2.0 | 2.0 | 0.00 | 0.00 | 0.00 | 82 | 1013.8 |
| 20260904051132 | 81 | 192 | 3.0 | 5.0 | 0.00 | 0.00 | 0.00 | 82 | 1013.9 |
| 20260904050628 | 81 | 154 | 1.0 | 2.0 | 0.00 | 0.00 | 0.00 | 82 | 1013.6 |
| 20260904050124 | 81 | 156 | 2.0 | 2.0 | 0.00 | 0.00 | 0.00 | 82 | 1013.9 |
| 20260904045619 | 81 | 130 | 3.0 | 3.0 | 0.00 | 0.00 | 0.00 | 82 | 1013.8 |
| 20260904045113 | 82 | 161 | 5.0 | 9.0 | 0.00 | 0.00 | 0.00 | 81 | 1013.9 |
| 20260904044609 | 82 | 122 | 2.0 | 3.0 | 0.00 | 0.00 | 0.00 | 81 | 1013.6 |
| 20260904044105 | 82 | 152 | 3.0 | 7.0 | 0.00 | 0.00 | 0.00 | 81 | 1013.6 |
| 20260904043602 | 82 | 191 | 2.0 | 5.0 | 0.00 | 0.00 | 0.00 | 81 | 1013.5 |
| 20260904043057 | 82 | 172 | 8.0 | 10.0 | 0.00 | 0.00 | 0.00 | 81 | 1013.6 |
| 20260904042553 | 82 | 111 | 5.0 | 7.0 | 0.00 | 0.00 | 0.00 | 81 | 1013.6 |
| 20260904042054 | 82 | 175 | 2.0 | 2.0 | 0.00 | 0.00 | 0.00 | 80 | 1013.8 |
| 20260904041549 | 82 | 169 | 2.0 | 2.0 | 0.00 | 0.00 | 0.00 | 80 | 1013.5 |
| 20260904041045 | 82 | 154 | 3.0 | 3.0 | 0.00 | 0.00 | 0.00 | 80 | 1013.5 |
| 20260904040545 | 82 | 163 | 9.0 | 14.0 | 0.00 | 0.00 | 0.00 | 80 | 1013.5 |
| 20260904040042 | 82 | 163 | 6.0 | 9.0 | 0.00 | 0.00 | 0.00 | 79 | 1013.4 |
| 20260904035537 | 82 | 169 | 2.0 | 3.0 | 0.00 | 0.00 | 0.00 | 79 | 1013.4 |
| 20260904035036 | 82 | 130 | 7.0 | 9.0 | 0.00 | 0.00 | 0.00 | 79 | 1013.5 |
| 20260904034526 | 82 | 174 | 6.0 | 9.0 | 0.00 | 0.00 | 0.00 | 79 | 1013.6 |
| 20260904034021 | 82 | 186 | 8.0 | 10.0 | 0.00 | 0.00 | 0.00 | 79 | 1013.4 |
| 20260904033518 | 82 | 128 | 6.0 | 10.0 | 0.00 | 0.00 | 0.00 | 78 | 1013.6 |
| 20260904033014 | 82 | 188 | 6.0 | 10.0 | 0.00 | 0.00 | 0.00 | 78 | 1013.5 |
| 20260904032509 | 82 | 93 | 5.0 | 5.0 | 0.00 | 0.00 | 0.00 | 78 | 1013.6 |
| 20260904032009 | 82 | 172 | 4.0 | 7.0 | 0.00 | 0.00 | 0.00 | 78 | 1013.5 |
| 20260904031504 | 82 | 140 | 6.0 | 10.0 | 0.00 | 0.00 | 0.00 | 78 | 1013.6 |
| 20260904030959 | 82 | 195 | 3.0 | 5.0 | 0.00 | 0.00 | 0.00 | 77 | 1013.5 |
| 20260904030454 | 82 | 188 | 9.0 | 10.0 | 0.00 | 0.00 | 0.00 | 77 | 1013.6 |
| 20260904025949 | 82 | 142 | 7.0 | 10.0 | 0.00 | 0.00 | 0.00 | 77 | 1013.4 |
| 20260904025446 | 82 | 159 | 4.0 | 7.0 | 0.00 | 0.00 | 0.00 | 76 | 1013.3 |
| 20260904024945 | 82 | 95 | 5.0 | 10.0 | 0.00 | 0.00 | 0.00 | 76 | 1013.3 |
| 20260904024440 | 82 | 166 | 5.0 | 9.0 | 0.00 | 0.00 | 0.00 | 76 | 1013.1 |
| 20260904023936 | 82 | 171 | 5.0 | 7.0 | 0.00 | 0.00 | 0.00 | 76 | 1013.0 |
| 20260904023432 | 82 | 152 | 5.0 | 5.0 | 0.00 | 0.00 | 0.00 | 75 | 1012.9 |
| 20260904022931 | 82 | 164 | 2.0 | 3.0 | 0.00 | 0.00 | 0.00 | 75 | 1012.9 |
| 20260904022429 | 82 | 129 | 5.0 | 5.0 | 0.00 | 0.00 | 0.00 | 75 | 1012.8 |
| 20260904021925 | 82 | 161 | 2.0 | 3.0 | 0.00 | 0.00 | 0.00 | 74 | 1012.7 |
| 20260904021420 | 82 | 123 | 2.0 | 3.0 | 0.00 | 0.00 | 0.00 | 74 | 1012.6 |
| 20260904020915 | 83 | 141 | 7.0 | 10.0 | 0.00 | 0.00 | 0.00 | 74 | 1012.7 |
| 20260904020410 | 83 | 165 | 6.0 | 9.0 | 0.00 | 0.00 | 0.00 | 73 | 1012.8 |
| 20260904015908 | 83 | 146 | 6.0 | 12.0 | 0.00 | 0.00 | 0.00 | 73 | 1012.7 |
| 20260904015404 | 83 | 147 | 5.0 | 9.0 | 0.00 | 0.00 | 0.00 | 72 | 1012.5 |
| 20260904014902 | 83 | 175 | 7.0 | 9.0 | 0.00 | 0.00 | 0.00 | 72 | 1012.4 |
| 20260904014358 | 83 | 171 | 6.0 | 10.0 | 0.00 | 0.00 | 0.00 | 72 | 1012.4 |
| 20260904013853 | 83 | 195 | 5.0 | 7.0 | 0.00 | 0.00 | 0.00 | 72 | 1012.3 |
| 20260904013349 | 83 | 155 | 3.0 | 5.0 | 0.00 | 0.00 | 0.00 | 73 | 1012.1 |
| 20260904012845 | 83 | 126 | 3.0 | 3.0 | 0.00 | 0.00 | 0.00 | 73 | 1012.1 |
| 20260904012340 | 83 | 133 | 2.0 | 3.0 | 0.00 | 0.00 | 0.00 | 73 | 1011.9 |
| 20260904011839 | 83 | 140 | 2.0 | 3.0 | 0.00 | 0.00 | 0.00 | 73 | 1012.0 |
| 20260904011334 | 84 | 151 | 5.0 | 7.0 | 0.00 | 0.00 | 0.00 | 73 | 1011.9 |
| 20260904010829 | 84 | 157 | 4.0 | 5.0 | 0.00 | 0.00 | 0.00 | 73 | 1011.9 |
| 20260904010326 | 84 | 139 | 6.0 | 9.0 | 0.00 | 0.00 | 0.00 | 74 | 1011.9 |
| 20260904005821 | 84 | 139 | 3.0 | 5.0 | 0.00 | 0.00 | 0.00 | 74 | 1011.9 |
| 20260904005317 | 84 | 131 | 3.0 | 3.0 | 0.00 | 0.00 | 0.00 | 74 | 1011.9 |
| 20260904004817 | 84 | 133 | 6.0 | 7.0 | 0.00 | 0.00 | 0.00 | 74 | 1011.9 |
| 20260904004313 | 84 | 160 | 3.0 | 3.0 | 0.00 | 0.00 | 0.00 | 73 | 1012.1 |
| 20260904003808 | 85 | 117 | 4.0 | 5.0 | 0.00 | 0.00 | 0.00 | 73 | 1012.1 |
| 20260904003304 | 85 | 119 | 3.0 | 3.0 | 0.00 | 0.00 | 0.00 | 72 | 1012.1 |
| 20260904002759 | 85 | 126 | 7.0 | 10.0 | 0.00 | 0.00 | 0.00 | 72 | 1012.4 |
| 20260904002255 | 85 | 121 | 4.0 | 9.0 | 0.00 | 0.00 | 0.00 | 71 | 1012.0 |
| 20260904001754 | 85 | 151 | 10.0 | 12.0 | 0.00 | 0.00 | 0.00 | 71 | 1012.2 |
| 20260904001249 | 85 | 154 | 4.0 | 7.0 | 0.00 | 0.00 | 0.00 | 71 | 1012.3 |
| 20260904000744 | 86 | 131 | 10.0 | 12.0 | 0.00 | 0.00 | 0.00 | 70 | 1012.2 |
| 20260904000240 | 86 | 151 | 11.0 | 15.0 | 0.00 | 0.00 | 0.00 | 70 | 1012.2 |
| 20260903235738 | 86 | 134 | 8.0 | 14.0 | 0.00 | 0.00 | 0.00 | 69 | 1011.9 |
| 20260903235235 | 87 | 118 | 6.0 | 10.0 | 0.00 | 0.00 | 0.00 | 68 | 1012.2 |
| 20260903234734 | 87 | 169 | 16.0 | 22.0 | 0.00 | 0.00 | 0.00 | 67 | 1012.0 |
| 20260903234231 | 87 | 159 | 8.0 | 12.0 | 0.00 | 0.00 | 0.00 | 67 | 1011.9 |
| 20260903233726 | 87 | 140 | 8.0 | 10.0 | 0.00 | 0.00 | 0.00 | 66 | 1011.9 |
| 20260903233222 | 88 | 168 | 16.0 | 21.0 | 0.00 | 0.00 | 0.00 | 66 | 1011.9 |
| 20260903232721 | 88 | 110 | 9.0 | 10.0 | 0.00 | 0.00 | 0.00 | 66 | 1011.8 |
| 20260903232217 | 89 | 122 | 9.0 | 10.0 | 0.00 | 0.00 | 0.00 | 65 | 1011.9 |
| 20260903231716 | 89 | 142 | 5.0 | 7.0 | 0.00 | 0.00 | 0.00 | 65 | 1011.8 |
| 20260903231212 | 89 | 171 | 10.0 | 15.0 | 0.00 | 0.00 | 0.00 | 64 | 1011.8 |
| 20260903230708 | 89 | 125 | 7.0 | 12.0 | 0.00 | 0.00 | 0.00 | 65 | 1011.6 |
| 20260903230208 | 88 | 113 | 19.0 | 22.0 | 0.00 | 0.00 | 0.00 | 64 | 1011.6 |
| 20260903225704 | 89 | 95 | 16.0 | 22.0 | 0.00 | 0.00 | 0.00 | 64 | 1011.7 |
| 20260903225200 | 89 | 168 | 13.0 | 17.0 | 0.00 | 0.00 | 0.00 | 64 | 1011.6 |
| 20260903224656 | 89 | 140 | 9.0 | 12.0 | 0.00 | 0.00 | 0.00 | 69 | 1011.6 |
| 20260903224152 | 90 | 166 | 6.0 | 10.0 | 0.00 | 0.00 | 0.00 | 70 | 1011.7 |
| 20260903223647 | 89 | 91 | 12.0 | 15.0 | 0.00 | 0.00 | 0.00 | 71 | 1011.6 |
| 20260903223146 | 89 | 118 | 11.0 | 12.0 | 0.00 | 0.00 | 0.00 | 70 | 1011.7 |
| 20260903222646 | 89 | 176 | 7.0 | 14.0 | 0.00 | 0.00 | 0.00 | 70 | 1011.4 |
| 20260903222144 | 89 | 122 | 14.0 | 21.0 | 0.00 | 0.00 | 0.00 | 70 | 1011.5 |
| 20260903221640 | 89 | 122 | 10.0 | 12.0 | 0.00 | 0.00 | 0.00 | 68 | 1011.6 |